This demonstration page uses our WeatherBlox Daily Observations layout. Learn more.

Left ArrowRight Arrow

Hourly Observations for October 13, 2016

Temp ( °F °C ) Dew Point ( °F °C ) Humidity (%) Winds ( mph kmh ) Pressure ( in mb ) Visibility ( mi km ) Precip ( " mm )
12:54 am 00:54 Clear 36 2.2 32 0 86 86 W 6 9 30.38 1029 10 16.0934 0 0
1:54 am 01:54 Clear 30 -1.1 28 -2.2 92 92 NNE 5 7 30.35 1028 10 16.0934 0 0
2:54 am 02:54 Clear 33 0.6 30 -1.1 89 89 Calm 30.35 1028 10 16.0934 0 0
3:54 am 03:54 Clear 32 0 29 -1.7 88 88 Calm 30.36 1028 10 16.0934 0 0
4:54 am 04:54 Clear 28 -2.2 27 -2.8 96 96 NNE 3 6 30.35 1028 10 16.0934 0 0
5:54 am 05:54 Clear 30 -1.1 28 -2.2 92 92 Calm 30.36 1028 10 16.0934 0 0
6:54 am 06:54 Clear 30 -1.1 28 -2.2 92 92 Calm 30.36 1028 10 16.0934 0 0
7:54 am 07:54 Sunny 31 -0.6 29 -1.7 92 92 SSE 3 6 30.36 1028 10 16.0934 0 0
8:54 am 08:54 Sunny 35 1.7 32 0 89 89 Calm 30.35 1028 10 16.0934 0 0
9:54 am 09:54 Sunny 42 5.6 35 1.7 76 76 S 10 17 30.34 1028 10 16.0934 0 0
10:54 am 10:54 Sunny 48 8.9 36 2.2 63 63 S 10 17 30.34 1027 10 16.0934 0 0
11:54 am 11:54 Sunny 52 11.1 36 2.2 55 55 SSW 14 22 30.31 1027 10 16.0934 0 0
12:54 pm 12:54 Sunny 55 12.8 36 2.2 49 49 S 13 20 30.28 1025 10 16.0934 0 0
1:54 pm 13:54 Sunny 58 14.4 37 2.8 46 46 SSE 7 11 30.25 1025 10 16.0934 0 0
2:54 pm 14:54 Sunny 59 15 37 2.8 44 44 S 12 19 30.23 1024 10 16.0934 0 0
3:54 pm 15:54 Sunny 59 15 35 1.7 41 41 S 15 24 30.2 1023 10 16.0934 0 0
4:54 pm 16:54 Sunny 59 15 37 2.8 44 44 S 15 24 30.21 1023 10 16.0934 0 0
5:54 pm 17:54 Sunny 56 13.3 38 3.3 51 51 S 13 20 30.18 1022 10 16.0934 0 0
6:54 pm 18:54 Clear 53 11.7 39 3.9 59 59 SSE 9 15 30.17 1022 10 16.0934 0 0
7:54 pm 19:54 Mostly Cloudy 54 12.2 38 3.3 55 55 SSE 10 17 30.16 1022 10 16.0934 0 0
8:54 pm 20:54 Clear 49 9.4 39 3.9 69 69 SSE 8 13 30.17 1022 10 16.0934 0 0
9:54 pm 21:54 Clear 45 7.2 38 3.3 77 77 S 7 11 30.17 1022 10 16.0934 0 0
10:54 pm 22:54 Clear 45 7.2 39 3.9 80 80 SSE 7 11 30.16 1021 10 16.0934 0 0
11:54 pm 23:54 Mostly Cloudy 44 6.7 40 4.4 85 85 S 8 13 30.15 1021 10 16.0934 0 0

Powered by AerisWeather